Location: T�bingen+AIT
(48.5342°N, 9.0700°E)
Time: 02:57:30
(UTC+01:00)

Cosmos 389 Rocket - Pass Details

Date: 14 September 2017
Orbit: 449 x 482 km, 81.1° (Epoch: 21 November)

Event Time Altitude Azimuth Distance (km) Brightness Sun altitude
Rises 21:18:16 0° 191° (SSW) 2,501 6.0 -16.7°
Reaches altitude 10° 21:20:21 10° 192° (SSW) 1,623 5.1 -17.0°
Maximum altitude 21:23:54 84° 279° (W) 473 2.4 -17.6°
Drops below altitude 10° 21:27:27 10° 10° (N) 1,617 5.4 -18.1°
Sets 21:29:32 0° 12° (NNE) 2,491 6.4 -18.4°
